[[{"header":{"parameterUnit":"m.s-1","parameterCategory":1,"la1":30.2991,"la2":30.254,"lo1":-89.0895,"lo2":-89.0444,"dy":0.0017,"dx":0.0017,"nx":28,"ny":28,"refTime":"2024-11-25T03:00:00:Z","depth":0,"parameterNumber":2,"parameterNumberName":"U-component_of_WINDS"},"data":[0,0,0,0,0,0,0,0,0,0,0,0,0,0,0,0,0,0,0,0,0,0,0,0,0,0,0,0,0,0,0,0,0,0,0,0,0,0,0,0,0,0,0,0,0,0,0,0,0,0,0,0,0,0,0,0,0,0,0.8459,0.8461,0,0.8573,0.8574,0.8576,0.8656,0.8657,0.8658,0.8658,0.8778,0.8781,0.8783,0,0,0,0,0,0,0,0,0,0,0,0,0,0.8316,0.8318,0.8459,0.8461,0.8462,0.8573,0.8574,0.8576,0.8656,0.8657,0.8658,0.8659,0.8777,0.878,0.8783,0,0,0,0,0,0,0,0,0,0,0,0,0,0.8399,0.8319,0.8459,0.8516,0.8522,0.8572,0.8574,0.8576,0.8656,0.8657,0.8658,0.8659,0.8776,0.878,0.8784,0.8788,0,0,0.8796,0.8797,0,0,0,0,0,0,0,0,0.8394,0.8404,0.8506,0.8512,0.8519,0.8601,0.8568,0.8648,0.8656,0.8605,0.8658,0.866,0.8719,0.8727,0.8747,0.8794,0.8799,0.8796,0.8798,0.88,0.8801,0,0,0,0,0,0,0,0.8388,0.84,0.8504,0.8507,0.8515,0.8537,0.8549,0.8583,0.8655,0.861,0.8616,0.8628,0.8723,0.8743,0.875,0.8801,0.8796,0.8799,0.8802,0.8803,0.8861,0.886,0,0,0,0,0,0,0.8373,0.8394,0.8501,0.8508,0.8457,0.8538,0.8553,0.8574,0.8655,0.8668,0.8627,0.8631,0.8736,0.8746,0.8755,0.8768,0.88,0.8804,0.8806,0.8862,0.8861,0.886,0,0,0,0,0,0,0.837,0.8382,0.8496,0.8453,0.8469,0.854,0.8563,0.8576,0.8596,0.8668,0.8682,0.8634,0.8737,0.8749,0.878,0.8773,0.8805,0.8809,0.8863,0.8861,0.886,0.8793,0,0,0,0,0,0,0.8365,0.838,0.8381,0.8452,0.8471,0.8518,0.8563,0.8577,0.8602,0.8609,0.8679,0.8691,0.8739,0.8774,0.8784,0.8779,0.8812,0.8864,0.8862,0.8861,0.8796,0.8789,0.8784,0,0,0,0,0,0.836,0.8358,0.8381,0.8394,0.8474,0.8517,0.8528,0.8582,0.8601,0.8604,0.8651,0.8689,0.8771,0.8776,0.8788,0.8784,0.8864,0.8863,0.8861,0.8799,0.879,0.8784,0,0,0,0,0,0,0.8286,0.8368,0.8395,0.8416,0.8459,0.8531,0.8536,0.8571,0.8611,0.8616,0.8681,0.8696,0.8721,0.8756,0.8759,0.8795,0.8823,0.8823,0.8771,0.8764,0.8758,0.8751,0.8815,0,0,0,0,0,0.8271,0.8299,0.837,0.8381,0.8402,0.8465,0.8486,0.8523,0.8571,0.859,0.8639,0.8685,0.8722,0.8745,0.8782,0.88,0.8818,0.8804,0.8798,0.8792,0.8793,0.8808,0.8803,0.8854,0.8854,0.8854,0,0,0.8243,0.8292,0.8305,0.8368,0.8406,0.8434,0.848,0.8507,0.853,0.8595,0.8627,0.8664,0.872,0.8745,0.8759,0.8775,0.8783,0.879,0.8785,0.8789,0.8806,0.8801,0.8797,0.8853,0.8853,0.8853,0,0,0.8207,0.8244,0.826,0.8297,0.8353,0.8396,0.8399,0.8466,0.8493,0.8526,0.8576,0.8604,0.8665,0.8704,0.8731,0.871,0.8747,0.872,0.8689,0.8703,0.8699,0.8696,0.8691,0.8688,0.872,0.8719,0.8719,0,0.8165,0.8208,0.8263,0.8289,0.8316,0.8375,0.8392,0.8425,0.8491,0.8509,0.8526,0.8605,0.8647,0.8683,0.8678,0.8697,0.8705,0.8713,0.8695,0.8692,0.869,0.8686,0.8684,0.8716,0.8716,0.8717,0.8717,0,0.8155,0.8185,0.819,0.8252,0.828,0.8301,0.836,0.8382,0.8417,0.8458,0.8492,0.8544,0.8594,0.8605,0.8639,0.8647,0.8655,0.8682,0.8712,0.8681,0.8679,0.8677,0.8711,0.8712,0.8713,0.8714,0,0,0.8077,0.8169,0.817,0.82,0.8267,0.8292,0.8315,0.8364,0.8382,0.8425,0.8449,0.85,0.8526,0.8557,0.8596,0.8608,0.8591,0.8634,0.8636,0.8626,0.8605,0.8586,0.8583,0.8615,0.8615,0.8615,0.8601,0,0.8053,0.8098,0.8149,0.8178,0.8207,0.8264,0.8285,0.8329,0.8368,0.84,0.8443,0.8479,0.8509,0.8528,0.8542,0.859,0.8588,0.8591,0.864,0.8641,0.8627,0.8582,0.8562,0.8547,0.8601,0.86,0.86,0,0.8031,0.8071,0.8103,0.8169,0.8183,0.8201,0.825,0.8279,0.8331,0.8359,0.8393,0.8435,0.8466,0.849,0.8534,0.8535,0.8558,0.8584,0.8585,0.8594,0.8621,0.8592,0.8543,0.8542,0.8599,0.8599,0.8599,0,0.7974,0.8036,0.8064,0.8087,0.8164,0.8176,0.8208,0.8261,0.8287,0.833,0.8348,0.8394,0.842,0.8456,0.851,0.8522,0.8549,0.8578,0.8575,0.8574,0.858,0.858,0.8537,0.859,0.859,0.859,0.859,0,0.7943,0.7961,0.804,0.8057,0.8079,0.8137,0.8158,0.8196,0.8242,0.8269,0.832,0.8345,0.8413,0.8447,0.8489,0.8521,0.8531,0.8556,0.8568,0.8553,0.855,0.8571,0.8575,0.859,0.859,0.859,0.859,0,0.7885,0.7937,0.7972,0.8041,0.8059,0.8072,0.8133,0.8153,0.8194,0.8228,0.8239,0.8304,0.8346,0.8403,0.8462,0.8491,0.8518,0.8534,0.85,0.8508,0.8503,0.8504,0.8474,0.8475,0.8524,0.8524,0.8523,0,0.7863,0.7878,0.7949,0.797,0.8001,0.8034,0.8062,0.8119,0.8146,0.8206,0.8219,0.8265,0.8305,0.8369,0.8423,0.8469,0.8489,0.8476,0.8497,0.8482,0.8492,0.8492,0.8495,0.8471,0.847,0.847,0.8469,0,0.782,0.7845,0.7882,0.7928,0.7958,0.7997,0.8039,0.8054,0.8121,0.8148,0.8191,0.8221,0.8282,0.8328,0.8381,0.8417,0.8455,0.8462,0.8464,0.8451,0.8431,0.8445,0.8489,0.8463,0.8463,0.8464,0.8464,0.8464,0.7781,0.7798,0.7851,0.789,0.7927,0.7965,0.7988,0.8032,0.8068,0.8122,0.8154,0.8196,0.8249,0.8325,0.8358,0.8393,0.8409,0.8411,0.8413,0.8413,0.8409,0.8423,0.8403,0.8403,0.8404,0.8404,0.8404,0,0.7743,0.778,0.7815,0.7872,0.7903,0.7934,0.7982,0.8007,0.8043,0.8089,0.8127,0.8177,0.8221,0.8278,0.8327,0.8345,0.8364,0.8356,0.8357,0.8365,0.8392,0.8386,0.834,0.834,0.834,0.834,0.834,0.834,0.7728,0.7759,0.779,0.7841,0.7878,0.7919,0.7944,0.798,0.8017,0.807,0.8107,0.8143,0.8195,0.8248,0.829,0.8306,0.8323,0.8311,0.8332,0.8357,0.8363,0.8368,0.8363,0.8313,0.8313,0.8303,0.8303,0.8302]},{"header":{"parameterUnit":"m.s-1","parameterCategory":1,"la1":30.2991,"la2":30.254,"lo1":-89.0895,"lo2":-89.0444,"dy":0.0017,"dx":0.0017,"nx":28,"ny":28,"refTime":"2024-11-25T03:00:00:Z","depth":0,"parameterNumber":3,"parameterNumberName":"V-component_of_WINDS"},"data":[0,0,0,0,0,0,0,0,0,0,0,0,0,0,0,0,0,0,0,0,0,0,0,0,0,0,0,0,0,0,0,0,0,0,0,0,0,0,0,0,0,0,0,0,0,0,0,0,0,0,0,0,0,0,0,0,0,0,2.8793,2.8794,0,2.8913,2.8914,2.8915,2.8995,2.8996,2.8996,2.8997,2.9119,2.9122,2.9125,0,0,0,0,0,0,0,0,0,0,0,0,0,2.8634,2.8636,2.8792,2.8794,2.8795,2.8912,2.8914,2.8916,2.8995,2.8996,2.8996,2.8997,2.9118,2.9122,2.9125,0,0,0,0,0,0,0,0,0,0,0,0,0,2.8723,2.8637,2.8792,2.8849,2.8855,2.8912,2.8914,2.8916,2.8995,2.8996,2.8997,2.8997,2.9117,2.9121,2.9126,2.9135,0,0,2.9138,2.914,0,0,0,0,0,0,0,0,2.8718,2.8729,2.8839,2.8845,2.8853,2.894,2.8903,2.8989,2.8995,2.8942,2.8997,2.8998,2.9059,2.9068,2.9089,2.9141,2.9146,2.9139,2.9141,2.9143,2.9144,0,0,0,0,0,0,0,2.8712,2.8724,2.884,2.8841,2.8849,2.8869,2.8883,2.892,2.8994,2.8947,2.8953,2.8966,2.9063,2.9084,2.9092,2.9148,2.9138,2.9142,2.9145,2.9146,2.9217,2.9216,0,0,0,0,0,0,2.8696,2.8718,2.8836,2.8844,2.8786,2.8872,2.8887,2.8911,2.8994,2.9008,2.8965,2.8969,2.9077,2.9087,2.9097,2.9116,2.9143,2.9147,2.9149,2.9218,2.9217,2.9216,0,0,0,0,0,0,2.8693,2.8706,2.8831,2.8783,2.88,2.8873,2.89,2.8913,2.8935,2.9008,2.9022,2.8973,2.9078,2.9091,2.9126,2.9121,2.9149,2.9152,2.9218,2.9217,2.9217,2.9152,0,0,0,0,0,0,2.8688,2.8704,2.8708,2.8782,2.8803,2.8857,2.89,2.8915,2.8942,2.8948,2.902,2.9032,2.908,2.9119,2.913,2.9127,2.9156,2.9219,2.9218,2.9217,2.9155,2.9149,2.9144,0,0,0,0,0,2.8682,2.8684,2.8708,2.8721,2.8809,2.8857,2.8869,2.8923,2.8941,2.8946,2.8994,2.903,2.9119,2.9122,2.9135,2.9133,2.922,2.9218,2.9217,2.9157,2.915,2.9144,0,0,0,0,0,0,2.8607,2.8695,2.8722,2.8748,2.8795,2.887,2.8878,2.8913,2.8955,2.896,2.9025,2.9041,2.9069,2.9105,2.9106,2.9149,2.9174,2.9175,2.9124,2.9118,2.9113,2.9104,2.9159,0,0,0,0,0,2.8593,2.8625,2.87,2.8716,2.8738,2.8804,2.8827,2.8865,2.8916,2.8936,2.8986,2.9034,2.9073,2.9097,2.9137,2.916,2.9178,2.9166,2.916,2.9155,2.9156,2.9174,2.917,2.9212,2.9212,2.9212,0,0,2.8566,2.8618,2.8634,2.8703,2.8743,2.8775,2.882,2.8851,2.8876,2.894,2.8977,2.9015,2.9073,2.9103,2.9118,2.9133,2.9148,2.9154,2.9149,2.9153,2.9172,2.9168,2.9164,2.9211,2.9211,2.9211,0,0,2.8533,2.8574,2.8594,2.8634,2.8695,2.8739,2.8743,2.8814,2.8843,2.888,2.893,2.8961,2.9026,2.9067,2.9096,2.908,2.9117,2.9091,2.9063,2.908,2.9076,2.9074,2.9071,2.9069,2.9091,2.9091,2.9091,0,2.8491,2.8541,2.8599,2.8629,2.8659,2.8719,2.874,2.8776,2.8847,2.8866,2.8882,2.8968,2.901,2.9052,2.9048,2.9069,2.9078,2.9084,2.9072,2.907,2.9069,2.9067,2.9065,2.9088,2.9088,2.9089,2.9089,0,2.8488,2.8522,2.853,2.8599,2.8629,2.8654,2.8717,2.8741,2.8777,2.882,2.8859,2.8913,2.8967,2.8979,2.9014,2.9026,2.9034,2.9059,2.9087,2.906,2.906,2.9059,2.9083,2.9085,2.9085,2.9086,0,0,2.841,2.8512,2.8514,2.8547,2.8619,2.8647,2.8676,2.8729,2.875,2.8796,2.8824,2.8879,2.8904,2.8937,2.8977,2.8991,2.8979,2.9016,2.9019,2.9009,2.8999,2.898,2.8978,2.9003,2.9003,2.9003,2.8995,0,2.839,2.8444,2.8498,2.8534,2.8568,2.8627,2.8652,2.87,2.8741,2.8777,2.8822,2.8861,2.889,2.8911,2.8928,2.8977,2.8978,2.8978,2.903,2.9031,2.9016,2.8977,2.8957,2.8947,2.8995,2.8995,2.8995,0,2.8373,2.8418,2.8458,2.853,2.8546,2.8568,2.8622,2.8655,2.8711,2.874,2.8778,2.8821,2.8855,2.8878,2.8928,2.8927,2.8952,2.8979,2.898,2.8988,2.9012,2.8986,2.8945,2.8944,2.8994,2.8994,2.8994,0,2.8315,2.8386,2.842,2.8446,2.853,2.8545,2.858,2.8638,2.8667,2.8714,2.8734,2.8784,2.8812,2.8851,2.8907,2.8918,2.8952,2.8979,2.8979,2.8977,2.8984,2.8983,2.8947,2.8997,2.8997,2.8997,2.8997,0,2.8287,2.8309,2.8396,2.8416,2.8444,2.8506,2.8532,2.8573,2.8624,2.8655,2.8708,2.8736,2.8807,2.8844,2.8888,2.8924,2.8936,2.8962,2.8973,2.8958,2.8955,2.8976,2.8979,2.8996,2.8996,2.8996,2.8996,0,2.8228,2.8286,2.8327,2.8404,2.8424,2.8441,2.8508,2.8531,2.8576,2.8614,2.8627,2.8697,2.8743,2.8803,2.8867,2.8897,2.8929,2.8946,2.891,2.8918,2.8915,2.8915,2.8893,2.8894,2.894,2.8939,2.8939,0,2.8207,2.8226,2.8306,2.833,2.8365,2.8403,2.8434,2.8497,2.8527,2.8594,2.8609,2.866,2.8704,2.8775,2.8833,2.8883,2.8903,2.8892,2.8911,2.8896,2.8906,2.8905,2.8908,2.8887,2.8886,2.8886,2.8885,0,2.8165,2.8193,2.8235,2.8288,2.8323,2.8368,2.8415,2.8432,2.8505,2.8536,2.8584,2.8618,2.8686,2.8736,2.8795,2.8833,2.8872,2.8879,2.8882,2.8867,2.8847,2.886,2.8899,2.8879,2.888,2.888,2.8881,2.8881,2.8126,2.8146,2.8207,2.8252,2.8294,2.8338,2.8364,2.8413,2.8454,2.8514,2.8549,2.8597,2.8655,2.8738,2.8775,2.8814,2.8829,2.8832,2.8834,2.8834,2.883,2.8839,2.8824,2.8825,2.8825,2.8825,2.8825,0,2.8088,2.8131,2.8172,2.8237,2.8273,2.8307,2.8361,2.839,2.8431,2.8483,2.8525,2.8582,2.8632,2.8694,2.8748,2.8768,2.8787,2.878,2.878,2.8789,2.8813,2.8806,2.8764,2.8764,2.8764,2.8764,2.8764,2.8764,2.8073,2.8111,2.8147,2.8207,2.8249,2.8297,2.8325,2.8366,2.8408,2.8469,2.8511,2.8551,2.8607,2.8666,2.8714,2.8731,2.875,2.8737,2.876,2.8781,2.8787,2.8792,2.8786,2.874,2.874,2.8733,2.8733,2.8733]}]]